Flight Track Log - Related Links

Times and Time Zones

All times are in EDT time to prevent confusion due to time zone crossing. See the SWA499 flight status page for this flight to view local times or setup timezone preferences in your user account.

Time Position Orientation Groundspeed Altitude Reporting Facility
EDT Latitude Longitude Course Direction KTS MPH feet Rate Location/Type
Tue 10:20:10 PM 37.6500 -122.3667 323° Northwest 182 209 1,400  Level Northern Cal TRACON
Tue 10:22:04 PM 37.7364 -122.4483 323° Northwest 225 259 5,900 2,709 Climbing Oakland Center
Tue 10:23:05 PM 37.7225 -122.5161 255° West 235 270 9,300 2,213 Climbing Oakland Center
Tue 10:24:06 PM 37.6706 -122.5794 224° Southwest 254 292 10,400 2,049 Climbing Oakland Center
Tue 10:25:08 PM 37.5889 -122.6158 199° South 320 368 13,500 3,073 Climbing Oakland Center
Tue 10:26:09 PM 37.4928 -122.6078 176° South 347 399 16,700 2,902 Climbing Oakland Center
Tue 10:27:10 PM 37.3917 -122.6003 177° South 361 415 19,400 2,537 Climbing Oakland Center
Tue 10:28:12 PM 37.2853 -122.5928 177° South 380 437 21,900 2,488 Climbing Oakland Center
Tue 10:29:13 PM 37.1536 -122.5839 177° South 396 456 24,500 2,262 Climbing Oakland Center
Tue 10:30:14 PM 37.0389 -122.5778 178° South 409 471 26,500 1,854 Climbing Oakland Center
Tue 10:31:16 PM 36.9200 -122.5658 175° South 424 488 28,300 1,805 Climbing Oakland Center
Tue 10:32:17 PM 36.7983 -122.5311 167° South 443 510 30,200 1,820 Climbing Oakland Center
Tue 10:33:18 PM 36.6822 -122.4703 157° South 458 527 32,000 1,756 Climbing Oakland Center
Tue 10:34:20 PM 36.5872 -122.3564 136° Southeast 473 544 33,800 1,659 Climbing Oakland Center
Tue 10:35:21 PM 36.4894 -122.2453 138° Southeast 478 550 35,400 1,672 Climbing Oakland Center
Tue 10:36:22 PM 36.3936 -122.1328 137° Southeast 476 548 37,200 1,659 Climbing Oakland Center
Tue 10:37:24 PM 36.2797 -121.9997 137° Southeast 472 543 38,800 878 Climbing Oakland Center
Tue 10:38:25 PM 36.1850 -121.8906 137° Southeast 468 539 39,000 98 Climbing Oakland Center
Tue 10:39:26 PM 36.0928 -121.7861 138° Southeast 462 532 39,000  Level Oakland Center
Tue 10:40:28 PM 35.9997 -121.6769 136° Southeast 462 532 39,000  Level Oakland Center
Tue 10:41:29 PM 35.9058 -121.5708 138° Southeast 461 531 39,000  Level Oakland Center
Tue 10:42:30 PM 35.8131 -121.4633 137° Southeast 460 529 39,000  Level Oakland Center
Tue 10:43:31 PM 35.7194 -121.3561 137° Southeast 460 529 39,000  Level Oakland Center
Tue 10:44:33 PM 35.6272 -121.2519 137° Southeast 455 524 39,000  Level Oakland Center
Tue 10:45:34 PM 35.5158 -121.1258 137° Southeast 455 524 39,000  Level Oakland Center
Tue 10:46:06 PM 35.4792 -121.0792 134° Southeast 453 521 39,000  Level Los Angeles Center
Tue 10:47:08 PM 35.4069 -120.9500 124° Southeast 457 526 39,000  Level Los Angeles Center
Tue 10:48:10 PM 35.3347 -120.8214 125° Southeast 459 528 39,000  Level Los Angeles Center
Tue 10:49:13 PM 35.2458 -120.6664 125° Southeast 462 532 39,000  Level Los Angeles Center
Tue 10:50:15 PM 35.1725 -120.5356 124° Southeast 464 534 39,000  Level Los Angeles Center
Tue 10:51:17 PM 35.0994 -120.4053 124° Southeast 463 533 39,000  Level Los Angeles Center
Tue 10:52:19 PM 35.0256 -120.2772 125° Southeast 461 531 39,000  Level Los Angeles Center
Tue 10:53:21 PM 34.9522 -120.1483 125° Southeast 460 529 39,000  Level Los Angeles Center
Tue 10:54:23 PM 34.8736 -120.0119 125° Southeast 460 529 39,000  Level Los Angeles Center
Tue 10:55:25 PM 34.7997 -119.8844 125° Southeast 463 533 39,000  Level Los Angeles Center
Tue 10:56:27 PM 34.7258 -119.7581 125° Southeast 462 532 39,000  Level Los Angeles Center
Tue 10:57:29 PM 34.6372 -119.6047 125° Southeast 462 532 39,000  Level Los Angeles Center
Tue 10:58:31 PM 34.5722 -119.5017 127° Southeast 459 528 39,000  Level Los Angeles Center
Tue 10:59:33 PM 34.4828 -119.3517 126° Southeast 458 527 39,000  Level Los Angeles Center
Tue 11:00:35 PM 34.4086 -119.2258 126° Southeast 459 528 39,000  Level Los Angeles Center
Tue 11:01:37 PM 34.3347 -119.1019 126° Southeast 456 525 39,000  Level Los Angeles Center
Tue 11:02:40 PM 34.2617 -118.9781 125° Southeast 453 521 39,000  Level Los Angeles Center
Tue 11:03:42 PM 34.1886 -118.8550 126° Southeast 451 519 39,000  Level Los Angeles Center
Tue 11:04:44 PM 34.1006 -118.7111 126° Southeast 445 512 39,000 -48 Level Los Angeles Center
Tue 11:05:46 PM 34.0286 -118.5892 125° Southeast 446 513 38,900 -677 Descending Los Angeles Center
Tue 11:06:48 PM 33.9569 -118.4711 126° Southeast 437 503 37,600 -1,790 Descending Los Angeles Center
Tue 11:07:50 PM 33.8764 -118.3578 131° Southeast 443 510 35,200 -2,419 Descending Los Angeles Center
Tue 11:08:52 PM 33.8028 -118.2692 135° Southeast 445 512 32,600 -2,206 Descending Los Angeles Center
Tue 11:10:06 PM 33.7078 -118.1169 127° Southeast 477 549 30,200 -1,839 Descending Los Angeles Center
Tue 11:11:09 PM 33.6989 -117.9344 93° East 454 522 28,400 -1,488 Descending Los Angeles Center
Tue 11:12:11 PM 33.6917 -117.7986 94° East 415 478 27,100 -1,645 Descending Los Angeles Center
Tue 11:13:13 PM 33.5828 -117.7525 161° South 355 409 25,000 -2,075 Descending Los Angeles Center
Tue 11:13:58 PM 33.5167 -117.7833 201° Southwest 359 413 23,400 -2,182 Descending Southern California TRACON
Tue 11:14:52 PM 33.4167 -117.7833 180° South 362 417 21,400 -1,947 Descending Southern California TRACON
Tue 11:15:52 PM 33.3500 -117.7000 134° Southeast 358 412 19,700 -1,686 Descending Southern California TRACON
Tue 11:16:53 PM 33.2833 -117.6167 134° Southeast 350 403 18,000 -1,636 Descending Southern California TRACON
Tue 11:17:53 PM 33.2167 -117.5333 134° Southeast 343 395 16,400 -1,584 Descending Southern California TRACON
Tue 11:18:58 PM 33.1333 -117.4667 146° Southeast 336 387 14,700 -1,600 Descending Southern California TRACON
Tue 11:19:53 PM 33.0667 -117.4167 148° Southeast 321 369 13,200 -1,416 Descending Southern California TRACON
Tue 11:20:27 PM 33.0417 -117.3922 141° Southeast 323 372 12,600 -1,438 Descending Los Angeles Center
Tue 11:21:29 PM 32.9536 -117.3233 147° Southeast 317 365 10,900 -1,355 Descending Los Angeles Center
Tue 11:22:31 PM 32.8858 -117.2686 146° Southeast 303 349 9,800 -1,258 Descending Los Angeles Center
Tue 11:23:33 PM 32.8203 -117.2150 145° Southeast 290 334 8,300 -1,306 Descending Los Angeles Center
Tue 11:24:35 PM 32.7914 -117.1169 109° East 282 325 7,100 -624 Descending Los Angeles Center
Tue 11:25:38 PM 32.7744 -117.0381 104° East 257 296 7,000 -48 Descending Los Angeles Center
Tue 11:26:40 PM 32.7567 -116.9644 106° East 240 276 7,000 -341 Level Los Angeles Center
Tue 11:27:41 PM 32.7408 -116.9011 107° East 209 241 6,300 -919 Descending Los Angeles Center
Tue 11:28:44 PM 32.6958 -116.8744 153° Southeast 217 250 5,100 -672 Descending Los Angeles Center
Tue 11:29:46 PM 32.6697 -116.9306 241° Southwest 204 235 4,900 -558 Descending Los Angeles Center
Tue 11:30:53 PM 32.6833 -117.0000 283° West 178 205 3,900 -850 Descending Southern California TRACON
Tue 11:31:53 PM 32.7000 -117.0500 292° West 161 185 3,100 -1,000 Descending Southern California TRACON
Tue 11:32:53 PM 32.7167 -117.1000 292° West 156 180 1,900 -1,150 Descending Southern California TRACON
Tue 11:33:53 PM 32.7197 -117.1356 276° West 148 170 800 -836 Descending Los Angeles Center
Tue 11:34:55 PM 32.7317 -117.1797 288° West 137 158 200 -581 Descending Los Angeles Center

Login

Don't have an account? Register now (free) for customized features, flight alerts, and more!